Weather in Mende

France     44°31′13″N   3°30′20″E
В апреле 2022 года жителям России запретили посещать сайт meteo.paraplan.net по решению Генеральной прокуратуры. Аудитория сайта уменьшилась в 10 раз. Владельцы сайта не видят смысла в поддержке погодного сервера в таких условиях. Сайт будет закрыт в октябре.
temp.,
°C
wind,
m/s
gust,
m/s
humid.,
%
clouds,
%
prec.,
mm/h
press.,
hPa
HPBL,
m
3 october, mon
mon323:00+8n229577 0.0 102719
02:00+7nne229589 0.0 102640
05:00+7nne2397100 0.0 102573
08:00+7nne239793 0.0 102563
11:00+14nne356328 0.0 1023580
14:00+19nne344645 0.0 1021955
17:00+19nne33447 0.0 10201106
20:00+11ne22845 0.0 102230
4 october, tue
tue423:00+8ne229521 0.0 102323
02:00+7nne22925 0.0 102216
05:00+7ne21851 0.0 102212
08:00+7ne11801 0.0 102210
11:00+16w11534 0.0 1021346
14:00+21wsw21350 0.0 10201018
17:00+20sw223657 0.0 10201035
20:00+11e017039 0.0 102210
5 october, wed
wed523:00+10ese117736 0.0 102410
02:00+9e11785 0.0 102410
05:00+9e118268 0.0 102311
08:00+8ese2286100 0.0 102415
11:00+17sse24465 0.0 1023565
14:00+20s33365 0.0 10231044
17:00+19sse22425 0.0 10231029
20:00+11ese228047 0.0 102614
6 october, thu
thu623:00+10ne1186100 0.0 102811
02:00+10nne118196 0.0 102910
05:00+9nne22810 0.0 102817
08:00+9ne22844 0.0 102933
11:00+17nne23535 0.0 1028504
14:00+21nne22380 0.0 10271546
17:00+21ne224015 0.0 10251828
20:00+13e22732 0.0 102837
7 october, fri
fri723:00+10ene11873 0.0 102812
02:00+10e119231 0.0 102811
05:00+9e119370 0.0 102611
08:00+9e119382 0.0 102612
11:00+17sse125650 0.0 1025567
14:00+20ssw223954 0.0 10231531
17:00+20s2140100 0.0 10211458
20:00+12ese1172100 0.0 102311